Location: Chevrette
(47.2948°N, 0.1587°E)
Time: 12:06:46
(UTC+00:00)

Daily predictions for brighter satellites

Satellite Brightness Start Highest point End
(mag) Time Altitude Azimuth Time Altitude Azimuth Time Altitude Azimuth
Nadezhda 4 Rocket 4.1 16:35:27 10° N 16:41:47 67° E 16:48:03 10° SSE
ATLAS 2AS CENTAUR R/B 4.2 16:35:48 10° WNW 16:42:18 28° NNW 16:48:33 10° NE
Cosmos 990 Rocket 4.0 16:38:34 10° NNW 16:43:47 68° ENE 16:48:55 10° SSE
Cosmos 1697 Rocket 2.8 16:40:28 10° NNW 16:46:00 54° ENE 16:51:29 10° SE
FengYun 1-2 T 4.3 16:40:55 10° SSE 16:46:21 57° ENE 16:51:46 10° N
Cosmos 1271 Rocket 4.1 16:43:34 10° SW 16:47:18 40° WNW 16:51:06 10° N
Sich 1 3.9 16:45:51 10° NNE 16:49:32 27° ENE 16:53:12 10° SE
NOAA 6 4.3 16:44:51 10° SE 16:49:46 47° ENE 16:54:41 10° N
Cosmos 1980 Rocket 2.8 16:44:59 10° NNW 16:50:09 34° NE 16:55:14 10° ESE
Cosmos 2221 2.6 16:47:11 10° S 16:51:27 84° W 16:55:48 10° N
Cosmos 1805 Rocket 4.1 16:47:36 10° N 16:51:36 35° ENE 16:55:35 10° SE
Cosmos 2369 4.1 16:46:43 10° NNW 16:52:10 42° NE 16:57:35 10° SE
CZ-4C R/B 3.3 16:49:39 10° NNW 16:56:10 42° NE 17:03:49 10° ESE
Cosmos 1842 Rocket 3.7 16:51:53 10° S 16:56:19 87° W 17:00:51 10° N
USA 234 3.3 16:49:52 10° ESE 16:56:23 75° NNE 17:02:55 10° NW
Cosmos 1092 Rocket 4.2 16:51:25 10° N 16:57:39 53° ENE 17:03:48 10° SSE
Cosmos 2084 3.6 16:53:53 10° NW 16:58:11 81° SW 17:02:39 10° SE
NOSS 3-1 (A) 4.2 16:51:05 10° NW 16:58:34 89° NE 17:07:21 10° SE
USA 306 3.9 16:56:06 10° WNW 16:59:59 33° N 17:03:35 11° ENE
Cosmos 1812 4.4 16:58:07 10° SE 17:00:29 16° E 17:02:43 11° NE
SL-16 R/B 3.7 16:57:30 10° N 17:01:01 16° NE 17:04:16 11° ENE
ISS -3.5 16:58:17 10° WNW 17:01:37 53° NNE 17:04:57 10° E
Meteor 1-25 Rocket 4.2 16:57:48 10° N 17:03:21 64° ENE 17:08:55 10° SSE
NOSS 2-2 (D) 4.4 16:59:16 10° NNW 17:04:07 51° NE 17:10:49 10° ESE
NOSS 2-2 (E) 4.4 16:59:24 10° NW 17:04:29 61° NE 17:11:36 10° SE
SMAP 3.0 17:01:06 10° SSE 17:05:42 63° ENE 17:10:19 10° N
Cosmos 2082 Rocket 3.1 17:01:00 10° SSE 17:05:53 30° ESE 17:10:43 10° NE
Meteor PRIRODA 3.9 17:02:45 10° S 17:06:22 71° WSW 17:10:00 10° NNW
Cosmos 1939 Rocket 2.8 17:02:49 10° SSE 17:06:55 69° ENE 17:10:59 10° N
CORIOLIS 4.2 17:03:22 10° SSE 17:08:41 62° ENE 17:14:03 10° N
Cosmos 44 Rocket 4.4 17:07:06 10° NNW 17:11:09 24° NE 17:14:23 13° E
NOAA 12 4.3 17:06:36 10° S 17:11:55 78° WSW 17:17:16 10° NNW
CZ-4B DEB 4.2 17:09:39 10° SSE 17:15:04 62° ENE 17:20:30 10° N
Cosmos 2278 4.2 17:10:53 10° NNW 17:16:12 38° NE 17:21:30 10° ESE
Cosmos 1602 3.7 17:13:03 10° N 17:16:54 63° E 17:20:44 10° SSE
USA 307 3.9 17:14:56 10° WNW 17:18:50 33° N 17:21:38 16° NE
Cosmos 1627 Rocket 4.4 17:13:00 10° N 17:19:10 64° ENE 17:25:13 10° SSE
AQUARIUS 4.1 17:15:08 10° SSE 17:19:37 73° ENE 17:24:06 10° N
Cosmos 540 Rocket 3.5 17:15:48 10° S 17:20:47 58° ESE 17:25:50 10° NNE
Cosmos 2034 Rocket 4.2 17:16:04 10° SSW 17:22:13 75° W 17:28:25 10° N
Radarsat 4.5 17:18:54 10° SSE 17:24:05 81° ENE 17:29:20 10° NNW
ARGOS 3.7 17:20:31 10° SE 17:25:21 34° ENE 17:30:11 10° N
Cosmos 2279 Rocket 4.4 17:20:23 10° SSE 17:26:02 38° E 17:31:41 10° NNE
COSMO-SKYMED 1 3.6 17:23:24 14° NE 17:26:12 26° E 17:29:52 10° SSE
COSMOS 2406 3.2 17:20:42 10° SSW 17:26:24 70° ESE 17:32:07 10° NNE
Cosmos 1833 Rocket 2.7 17:22:04 10° SSW 17:27:42 90° ESE 17:33:23 10° NNE
Cosmos 1782 2.9 17:25:26 10° S 17:29:20 55° E 17:33:15 10° NNE
SL-08 R/B 4.5 17:25:05 10° N 17:29:33 43° WNW 17:33:55 10° SW
Meteor 2-21 4.4 17:24:04 10° N 17:30:09 69° ENE 17:36:10 10° SSE
ATLAS 5 CENTAUR R/B 3.1 17:23:02 10° NW 17:31:14 34° NNE 17:33:09 21° ENE
ATLAS CENTAUR R/B 4.0 17:32:24 10° NW 17:34:32 13° NNW 17:36:45 10° N
Cosmos 1633 Rocket 3.6 17:30:44 10° N 17:34:47 36° ENE 17:38:50 10° SE
Cosmos 1818 4.2 17:30:18 10° NNW 17:35:23 36° NE 17:38:50 18° E
Cosmos 468 Rocket 4.3 17:30:17 10° SSW 17:35:25 67° WNW 17:40:38 10° NNE
YAOGAN 1 4.3 17:39:35 16° NNE 17:39:35 16° NNE 17:41:00 10° NNE
Cosmos 1898 Rocket 4.2 17:33:45 10° NNW 17:38:54 58° WSW 17:43:59 10° S
ERBS 4.3 17:37:45 10° NW 17:39:56 17° NNW 17:41:01 15° NNE
CZ-2D R/B 3.1 17:36:34 10° SSE 17:40:23 76° ENE 17:44:13 10° N
GEOS 3 Rocket 4.3 17:37:58 20° E 17:40:44 34° NE 17:45:22 10° NNW
USA 308 3.9 17:37:37 10° WNW 17:41:29 33° N 17:43:13 24° NE
Cosmos 1634 Rocket 4.0 17:36:33 10° S 17:42:51 78° E 17:49:13 10° N
COSMOS 2455 2.8 17:37:39 10° SSW 17:43:37 68° ESE 17:48:14 18° NE
PAYLOAD B 4.2 17:39:17 10° SSE 17:44:53 83° ENE 17:50:31 10° NNW
CZ-2C R/B 2.8 17:40:44 10° NNE 17:45:43 45° E 17:50:39 10° S
Cosmos 1500 3.0 17:42:39 10° N 17:46:26 90° E 17:50:09 10° S
CZ-4B R/B 3.1 17:42:06 10° SSE 17:47:26 62° ENE 17:52:42 10° N
Cosmos 2026 Rocket 4.0 17:41:48 10° N 17:47:58 83° W 17:54:02 10° S
Cosmos 1151 Rocket 3.2 17:44:12 10° SSE 17:48:22 49° E 17:51:27 17° NNE
Lacrosse 5 rocket 1.9 17:46:07 10° NW 17:49:44 36° NNE 17:50:35 32° NE
Okean O Rocket 1.8 17:47:11 10° SE 17:51:28 50° ENE 17:55:48 10° N
Cosmos 2208 Rocket 4.4 17:54:29 10° S 17:59:33 43° ESE 18:01:39 30° NE
Cosmos 1666 Rocket 3.4 17:56:14 10° N 18:00:43 79° ENE 18:05:07 10° SSE
CZ-4 R/B 4.4 17:56:45 10° SSE 18:00:47 56° ENE 18:04:51 10° N
Meteor 1-11 Rocket 4.2 17:57:32 10° N 18:02:41 36° ENE 18:05:45 21° ESE
H-2A R/B 2.2 17:58:24 10° S 18:03:35 76° WSW 18:08:39 10° NNW
Cosmos 2150 Rocket 4.4 17:59:01 10° N 18:03:51 38° ENE 18:04:47 35° E
Cosmos 1470 Rocket 3.9 17:59:38 10° N 18:03:54 42° ENE 18:08:09 10° SSE
USA 267 3.5 18:01:04 22° NE 18:05:20 62° NNW 18:11:45 10° WSW
Cosmos 1328 Rocket 3.6 18:01:33 10° S 18:05:53 54° E 18:07:30 34° NE
Cosmos 1655 Rocket 4.2 17:59:47 10° N 18:06:00 49° ENE 18:12:08 10° SSE
Cosmos 2360 Rocket 3.6 18:03:45 10° N 18:07:10 21° NNE 18:07:10 21° NNE
USA 305 3.6 18:04:22 10° WNW 18:08:18 36° N 18:08:46 35° NNE
Landsat 5 3.5 18:08:42 48° E 18:08:50 48° E 18:12:43 10° S
SKYMED 2 3.4 18:12:00 26° NNE 18:14:28 81° ESE 18:18:49 10° S
Cosmos 2180 Rocket 4.4 18:08:23 10° S 18:14:39 68° E 18:20:54 10° NNE
Cosmos 841 Rocket 3.8 18:09:50 10° SSW 18:14:57 65° WNW 18:18:54 17° NNE
Cosmos 1666 2.7 18:12:10 10° NNW 18:15:53 75° W 18:19:35 10° S
Feng Yun 1-1 Rocket 4.3 18:11:04 10° SSE 18:16:53 61° ENE 18:22:39 10° N
Meteor 2-8 Rocket 4.3 18:12:08 10° S 18:18:14 70° E 18:24:23 10° NNE
ATLAS CENTAUR R/B 2.9 18:10:48 10° WSW 18:19:12 56° NW 18:20:43 37° NNE
Cosmos 1125 Rocket 3.6 18:16:55 10° NNW 18:22:01 49° ENE 18:22:14 49° ENE
Cosmos 2322 Rocket 2.7 18:23:01 10° NNW 18:27:49 40° NE 18:27:49 40° NE
Cosmos 1980 Rocket 3.2 18:28:55 10° NW 18:34:18 46° WSW 18:39:38 10° S
SL-08 RB Rocket 3.6 18:30:05 10° SSE 18:34:43 89° WSW 18:39:22 10° NNW
ATLAS 2AS CENTAUR R/B 4.2 18:30:05 10° NW 18:35:51 23° N 18:37:26 21° NNE
Cosmos 1812 3.9 18:32:12 10° SSW 18:35:52 42° WNW 18:37:47 24° NNW
ISS -2.3 18:35:12 10° WNW 18:37:58 37° SW 18:37:58 37° SW
USA 234 4.4 18:33:39 10° SSE 18:39:43 40° SW 18:45:48 10° WNW
USA 306 3.9 18:36:29 10° NW 18:39:35 36° NNW 18:39:35 36° NNW
CZ-4C R/B 3.3 18:38:02 10° NW 18:45:16 68° SW 18:53:39 10° SSE
SL-16 R/B 2.1 18:40:33 10° NNW 18:46:11 69° ENE 18:46:11 69° ENE
Cosmos 2082 Rocket 3.0 18:44:15 10° SW 18:49:44 48° NW 18:52:35 27° N
Cosmos 44 Rocket 3.3 18:48:17 10° NW 18:53:09 74° WSW 18:53:09 74° WSW
Cosmos 2333 Rocket 4.0 18:52:35 10° N 18:54:27 18° N 18:54:27 18° N
USA 307 4.5 18:55:16 10° NW 18:57:40 29° NW 18:57:40 29° NW
COSMO-SKYMED 1 4.1 19:00:37 24° NNW 19:02:24 34° WNW 19:06:20 10° SW
ARGOS 4.5 19:00:31 10° SSW 19:05:33 38° W 19:10:35 10° NNW
Cosmos 2298 Rocket 4.4 19:03:37 10° NNW 19:08:52 63° WSW 19:09:28 58° SW
Cosmos 2266 Rocket 4.5 19:08:46 10° NNW 19:15:02 60° W 19:21:19 10° S
GEOS 3 Rocket 4.0 19:19:06 60° W 19:19:06 60° W 19:23:44 10° NW
Cosmos 1818 4.3 19:13:51 10° NW 19:19:08 49° WSW 19:19:33 48° SW
Cosmos 2219 Rocket 4.4 19:17:11 10° NNW 19:18:11 14° N 19:18:11 14° N
CZ-2C R/B 4.4 19:22:06 13° N 19:25:49 28° WNW 19:30:09 10° WSW
Okean O Rocket 4.2 19:24:54 10° SW 19:28:06 19° W 19:31:19 10° NW
Lacrosse 5 rocket 3.9 19:25:04 10° WNW 19:26:12 18° WNW 19:26:12 18° WNW
COSMOS 2455 4.3 19:24:47 10° W 19:30:03 30° NW 19:31:24 28° NNW
BREEZE-M DEB (TANK) 4.2 19:24:28 10° SW 19:44:57 78° S 19:44:57 78° S
USA 267 4.2 19:48:25 38° NNW 19:48:25 38° NNW 19:53:41 10° WNW
Cosmos 2360 Rocket 4.1 19:47:06 10° NNW 19:48:57 22° NNW 19:48:57 22° NNW
Cosmos 2322 Rocket 4.2 20:07:12 10° NW 20:09:41 24° WNW 20:09:41 24° WNW
